Year,Month,Day,Hour,Minute,Value (Times are PST for temperature in C)
2006,09,25,00,00,10.80
2006,09,25,00,01,10.80
2006,09,25,00,02,10.80
2006,09,25,00,03,10.80
2006,09,25,00,04,10.80
2006,09,25,00,05,10.70
2006,09,25,00,06,10.70
2006,09,25,00,07,10.70
2006,09,25,00,08,10.70
2006,09,25,00,09,10.70
2006,09,25,00,10,10.80
2006,09,25,00,11,10.80
2006,09,25,00,12,10.80
2006,09,25,00,13,10.80
2006,09,25,00,14,10.80
2006,09,25,00,15,10.80
2006,09,25,00,16,10.80
2006,09,25,00,17,10.80
2006,09,25,00,18,10.80
2006,09,25,00,19,10.80
2006,09,25,00,20,10.80
2006,09,25,00,21,10.80
2006,09,25,00,22,10.80
2006,09,25,00,23,10.80
2006,09,25,00,24,10.80
2006,09,25,00,25,10.70
2006,09,25,00,26,10.70
2006,09,25,00,27,10.70
2006,09,25,00,28,10.70
2006,09,25,00,29,10.70
2006,09,25,00,30,10.70
2006,09,25,00,31,10.70
2006,09,25,00,32,10.70
2006,09,25,00,33,10.70
2006,09,25,00,34,10.60
2006,09,25,00,35,10.60
2006,09,25,00,36,10.60
2006,09,25,00,37,10.60
2006,09,25,00,38,10.60
2006,09,25,00,39,10.60
2006,09,25,00,40,10.60
2006,09,25,00,41,10.60
2006,09,25,00,42,10.60
2006,09,25,00,43,10.60
2006,09,25,00,44,10.60
2006,09,25,00,45,10.60
2006,09,25,00,46,10.60
2006,09,25,00,47,10.60
2006,09,25,00,48,10.60
2006,09,25,00,49,10.60
2006,09,25,00,50,10.60
2006,09,25,00,51,10.60
2006,09,25,00,52,10.60
2006,09,25,00,53,10.60
2006,09,25,00,54,10.60
2006,09,25,00,55,10.50
2006,09,25,00,56,10.50
2006,09,25,00,57,10.50
2006,09,25,00,58,10.50
2006,09,25,00,59,10.50
2006,09,25,01,00,10.50
2006,09,25,01,01,10.50
2006,09,25,01,02,10.60
2006,09,25,01,03,10.60
2006,09,25,01,04,10.70
2006,09,25,01,05,10.70
2006,09,25,01,06,10.80
2006,09,25,01,07,10.80
2006,09,25,01,08,10.80
2006,09,25,01,09,10.80
2006,09,25,01,10,10.80
2006,09,25,01,11,10.80
2006,09,25,01,12,10.70
2006,09,25,01,13,10.70
2006,09,25,01,14,10.70
2006,09,25,01,15,10.70
2006,09,25,01,16,10.60
2006,09,25,01,17,10.60
2006,09,25,01,18,10.60
2006,09,25,01,19,10.50
2006,09,25,01,20,10.50
2006,09,25,01,21,10.50
2006,09,25,01,22,10.50
2006,09,25,01,23,10.60
2006,09,25,01,24,10.60
2006,09,25,01,25,10.70
2006,09,25,01,26,10.70
2006,09,25,01,27,10.80
2006,09,25,01,28,10.80
2006,09,25,01,29,10.80
2006,09,25,01,30,10.90
2006,09,25,01,31,10.90
2006,09,25,01,32,11.00
2006,09,25,01,33,11.00
2006,09,25,01,34,11.10
2006,09,25,01,35,11.20
2006,09,25,01,36,11.20
2006,09,25,01,37,11.20
2006,09,25,01,38,11.20
2006,09,25,01,39,11.20
2006,09,25,01,40,11.20
2006,09,25,01,41,11.10
2006,09,25,01,42,11.10
2006,09,25,01,43,11.10
2006,09,25,01,44,11.10
2006,09,25,01,45,11.10
2006,09,25,01,46,11.10
2006,09,25,01,47,11.10
2006,09,25,01,48,11.10
2006,09,25,01,49,11.10
2006,09,25,01,50,11.10
2006,09,25,01,51,11.20
2006,09,25,01,52,11.20
2006,09,25,01,53,11.20
2006,09,25,01,54,11.30
2006,09,25,01,55,11.30
2006,09,25,01,56,11.30
2006,09,25,01,57,11.40
2006,09,25,01,58,11.40
2006,09,25,01,59,11.50
2006,09,25,02,00,11.50
2006,09,25,02,01,11.60
2006,09,25,02,02,11.60
2006,09,25,02,03,11.60
2006,09,25,02,04,11.70
2006,09,25,02,05,11.70
2006,09,25,02,06,11.70
2006,09,25,02,07,11.70
2006,09,25,02,08,11.70
2006,09,25,02,09,11.70
2006,09,25,02,10,11.70
2006,09,25,02,11,11.70
2006,09,25,02,12,11.70
2006,09,25,02,13,11.70
2006,09,25,02,14,11.70
2006,09,25,02,15,11.70
2006,09,25,02,16,11.80
2006,09,25,02,17,11.80
2006,09,25,02,18,11.80
2006,09,25,02,19,11.80
2006,09,25,02,20,11.80
2006,09,25,02,21,11.80
2006,09,25,02,22,11.80
2006,09,25,02,23,11.80
2006,09,25,02,24,11.80
2006,09,25,02,25,11.80
2006,09,25,02,26,11.80
2006,09,25,02,27,11.90
2006,09,25,02,28,11.90
2006,09,25,02,29,11.90
2006,09,25,02,30,11.90
2006,09,25,02,31,11.90
2006,09,25,02,32,11.90
2006,09,25,02,33,11.90
2006,09,25,02,34,11.90
2006,09,25,02,35,11.90
2006,09,25,02,36,12.00
2006,09,25,02,37,12.00
2006,09,25,02,38,12.00
2006,09,25,02,39,12.00
2006,09,25,02,40,12.00
2006,09,25,02,41,12.00
2006,09,25,02,42,12.00
2006,09,25,02,43,12.00
2006,09,25,02,44,12.00
2006,09,25,02,45,12.00
2006,09,25,02,46,12.00
2006,09,25,02,47,12.00
2006,09,25,02,48,12.00
2006,09,25,02,49,12.00
2006,09,25,02,50,12.00
2006,09,25,02,51,12.00
2006,09,25,02,52,12.00
2006,09,25,02,53,12.10
2006,09,25,02,54,12.10
2006,09,25,02,55,12.20
2006,09,25,02,56,12.20
2006,09,25,02,57,12.20
2006,09,25,02,58,12.30
2006,09,25,02,59,12.30
2006,09,25,03,00,12.30
2006,09,25,03,01,12.40
2006,09,25,03,02,12.40
2006,09,25,03,03,12.40
2006,09,25,03,04,12.50
2006,09,25,03,05,12.50
2006,09,25,03,06,12.50
2006,09,25,03,07,12.60
2006,09,25,03,08,12.60
2006,09,25,03,09,12.60
2006,09,25,03,10,12.60
2006,09,25,03,11,12.70
2006,09,25,03,12,12.70
2006,09,25,03,13,12.70
2006,09,25,03,14,12.70
2006,09,25,03,15,12.70
2006,09,25,03,16,12.70
2006,09,25,03,17,12.80
2006,09,25,03,18,12.80
2006,09,25,03,19,12.80
2006,09,25,03,20,12.80
2006,09,25,03,21,12.80
2006,09,25,03,22,12.80
2006,09,25,03,23,12.80
2006,09,25,03,24,12.80
2006,09,25,03,25,12.80
2006,09,25,03,26,12.80
2006,09,25,03,27,12.90
2006,09,25,03,28,12.90
2006,09,25,03,29,12.90
2006,09,25,03,30,12.90
2006,09,25,03,31,12.90
2006,09,25,03,32,12.90
2006,09,25,03,33,12.90
2006,09,25,03,34,13.00
2006,09,25,03,35,13.00
2006,09,25,03,36,13.00
2006,09,25,03,37,13.00
2006,09,25,03,38,13.00
2006,09,25,03,39,13.00
2006,09,25,03,40,13.00
2006,09,25,03,41,13.00
2006,09,25,03,42,13.00
2006,09,25,03,43,13.00
2006,09,25,03,44,13.00
2006,09,25,03,45,13.00
2006,09,25,03,46,13.00
2006,09,25,03,47,13.00
2006,09,25,03,48,13.00
2006,09,25,03,49,12.90
2006,09,25,03,50,12.90
2006,09,25,03,51,12.90
2006,09,25,03,52,12.90
2006,09,25,03,53,13.00
2006,09,25,03,54,13.00
2006,09,25,03,55,13.00
2006,09,25,03,56,13.10
2006,09,25,03,57,13.10
2006,09,25,03,58,13.10
2006,09,25,03,59,13.10
2006,09,25,04,00,13.10
2006,09,25,04,01,13.10
2006,09,25,04,02,13.10
2006,09,25,04,03,13.10
2006,09,25,04,04,13.10
2006,09,25,04,05,13.00
2006,09,25,04,06,13.00
2006,09,25,04,07,12.90
2006,09,25,04,08,12.90
2006,09,25,04,09,12.90
2006,09,25,04,10,12.90
2006,09,25,04,11,12.80
2006,09,25,04,12,12.80
2006,09,25,04,13,12.80
2006,09,25,04,14,12.80
2006,09,25,04,15,12.70
2006,09,25,04,16,12.70
2006,09,25,04,17,12.70
2006,09,25,04,18,12.60
2006,09,25,04,19,12.60
2006,09,25,04,20,12.60
2006,09,25,04,21,12.60
2006,09,25,04,22,12.60
2006,09,25,04,23,12.50
2006,09,25,04,24,12.50
2006,09,25,04,25,12.50
2006,09,25,04,26,12.50
2006,09,25,04,27,12.40
2006,09,25,04,28,12.40
2006,09,25,04,29,12.40
2006,09,25,04,30,12.40
2006,09,25,04,31,12.40
2006,09,25,04,32,12.40
2006,09,25,04,33,12.30
2006,09,25,04,34,12.30
2006,09,25,04,35,12.30
2006,09,25,04,36,12.30
2006,09,25,04,37,12.30
2006,09,25,04,38,12.30
2006,09,25,04,39,12.30
2006,09,25,04,40,12.30
2006,09,25,04,41,12.30
2006,09,25,04,42,12.30
2006,09,25,04,43,12.30
2006,09,25,04,44,12.30
2006,09,25,04,45,12.30
2006,09,25,04,46,12.30
2006,09,25,04,47,12.30
2006,09,25,04,48,12.30
2006,09,25,04,49,12.20
2006,09,25,04,50,12.20
2006,09,25,04,51,12.20
2006,09,25,04,52,12.20
2006,09,25,04,53,12.20
2006,09,25,04,54,12.20
2006,09,25,04,55,12.20
2006,09,25,04,56,12.20
2006,09,25,04,57,12.20
2006,09,25,04,58,12.20
2006,09,25,04,59,12.20
2006,09,25,05,00,12.20
2006,09,25,05,01,12.20
2006,09,25,05,02,12.20
2006,09,25,05,03,12.20
2006,09,25,05,04,12.20
2006,09,25,05,05,12.10
2006,09,25,05,06,12.10
2006,09,25,05,07,12.10
2006,09,25,05,08,12.00
2006,09,25,05,09,12.00
2006,09,25,05,10,12.00
2006,09,25,05,11,11.90
2006,09,25,05,12,11.90
2006,09,25,05,13,11.90
2006,09,25,05,14,11.80
2006,09,25,05,15,11.80
2006,09,25,05,16,11.80
2006,09,25,05,17,11.80
2006,09,25,05,18,11.80
2006,09,25,05,19,11.80
2006,09,25,05,20,11.70
2006,09,25,05,21,11.70
2006,09,25,05,22,11.70
2006,09,25,05,23,11.60
2006,09,25,05,24,11.60
2006,09,25,05,25,11.60
2006,09,25,05,26,11.60
2006,09,25,05,27,11.50
2006,09,25,05,28,11.50
2006,09,25,05,29,11.40
2006,09,25,05,30,11.40
2006,09,25,05,31,11.40
2006,09,25,05,32,11.40
2006,09,25,05,33,11.30
2006,09,25,05,34,11.30
2006,09,25,05,35,11.30
2006,09,25,05,36,11.20
2006,09,25,05,37,11.20
2006,09,25,05,38,11.20
2006,09,25,05,39,11.10
2006,09,25,05,40,11.10
2006,09,25,05,41,11.10
2006,09,25,05,42,11.10
2006,09,25,05,43,11.10
2006,09,25,05,44,11.00
2006,09,25,05,45,11.00
2006,09,25,05,46,11.00
2006,09,25,05,47,10.90
2006,09,25,05,48,10.90
2006,09,25,05,49,10.90
2006,09,25,05,50,10.90
2006,09,25,05,51,10.90
2006,09,25,05,52,10.90
2006,09,25,05,53,10.90
2006,09,25,05,54,10.80
2006,09,25,05,55,10.80
2006,09,25,05,56,10.80
2006,09,25,05,57,10.80
2006,09,25,05,58,10.80
2006,09,25,05,59,10.70
2006,09,25,06,00,10.70
2006,09,25,06,01,10.70
2006,09,25,06,02,10.70
2006,09,25,06,03,10.60
2006,09,25,06,04,10.60
2006,09,25,06,05,10.60
2006,09,25,06,06,10.60
2006,09,25,06,07,10.50
2006,09,25,06,08,10.50
2006,09,25,06,09,10.50
2006,09,25,06,10,10.40
2006,09,25,06,11,10.40
2006,09,25,06,12,10.40
2006,09,25,06,13,10.40
2006,09,25,06,14,10.30
2006,09,25,06,15,10.30
2006,09,25,06,16,10.30
2006,09,25,06,17,10.30
2006,09,25,06,18,10.30
2006,09,25,06,19,10.20
2006,09,25,06,20,10.20
2006,09,25,06,21,10.20
2006,09,25,06,22,10.20
2006,09,25,06,23,10.20
2006,09,25,06,24,10.20
2006,09,25,06,25,10.20
2006,09,25,06,26,10.20
2006,09,25,06,27,10.20
2006,09,25,06,28,10.20
2006,09,25,06,29,10.10
2006,09,25,06,30,10.10
2006,09,25,06,31,10.10
2006,09,25,06,32,10.00
2006,09,25,06,33,10.00
2006,09,25,06,34,9.90
2006,09,25,06,35,9.90
2006,09,25,06,36,9.90
2006,09,25,06,37,9.90
2006,09,25,06,38,9.90
2006,09,25,06,39,9.90
2006,09,25,06,40,9.80
2006,09,25,06,41,9.80
2006,09,25,06,42,9.80
2006,09,25,06,43,9.80
2006,09,25,06,44,9.80
2006,09,25,06,45,9.80
2006,09,25,06,46,9.80
2006,09,25,06,47,9.80
2006,09,25,06,48,9.70
2006,09,25,06,49,9.70
2006,09,25,06,50,9.60
2006,09,25,06,51,9.60
2006,09,25,06,52,9.60
2006,09,25,06,53,9.60
2006,09,25,06,54,9.50
2006,09,25,06,55,9.40
2006,09,25,06,56,9.40
2006,09,25,06,57,9.40
2006,09,25,06,58,9.40
2006,09,25,06,59,9.40
2006,09,25,07,00,9.40
2006,09,25,07,01,9.40
2006,09,25,07,02,9.40
2006,09,25,07,03,9.40
2006,09,25,07,04,9.40
2006,09,25,07,05,9.40
2006,09,25,07,06,9.40
2006,09,25,07,07,9.40
2006,09,25,07,08,9.30
2006,09,25,07,09,9.30
2006,09,25,07,10,9.30
2006,09,25,07,11,9.30
2006,09,25,07,12,9.30
2006,09,25,07,13,9.30
2006,09,25,07,14,9.30
2006,09,25,07,15,9.40
2006,09,25,07,16,9.50
2006,09,25,07,17,9.60
2006,09,25,07,18,9.80
2006,09,25,07,19,9.90
2006,09,25,07,20,10.00
2006,09,25,07,21,10.20
2006,09,25,07,22,10.40
2006,09,25,07,23,10.60
2006,09,25,07,24,10.80
2006,09,25,07,25,10.90
2006,09,25,07,26,11.10
2006,09,25,07,27,11.30
2006,09,25,07,28,11.40
2006,09,25,07,29,11.50
2006,09,25,07,30,11.60
2006,09,25,07,31,11.70
2006,09,25,07,32,11.80
2006,09,25,07,33,12.00
2006,09,25,07,34,12.10
2006,09,25,07,35,12.10
2006,09,25,07,36,12.20
2006,09,25,07,37,12.30
2006,09,25,07,38,12.40
2006,09,25,07,39,12.40
2006,09,25,07,40,12.50
2006,09,25,07,41,12.60
2006,09,25,07,42,12.60
2006,09,25,07,43,12.60
2006,09,25,07,44,12.60
2006,09,25,07,45,12.70
2006,09,25,07,46,12.80
2006,09,25,07,47,12.80
2006,09,25,07,48,12.90
2006,09,25,07,49,13.00
2006,09,25,07,50,13.00
2006,09,25,07,51,13.10
2006,09,25,07,52,13.10
2006,09,25,07,53,13.10
2006,09,25,07,54,13.10
2006,09,25,07,55,13.00
2006,09,25,07,56,13.00
2006,09,25,07,57,12.90
2006,09,25,07,58,12.90
2006,09,25,07,59,12.90
2006,09,25,08,00,12.90
2006,09,25,08,01,12.90
2006,09,25,08,02,12.90
2006,09,25,08,03,12.90
2006,09,25,08,04,13.00
2006,09,25,08,05,13.10
2006,09,25,08,06,13.20
2006,09,25,08,07,13.30
2006,09,25,08,08,13.50
2006,09,25,08,09,13.60
2006,09,25,08,10,13.70
2006,09,25,08,11,13.70
2006,09,25,08,12,13.70
2006,09,25,08,13,13.70
2006,09,25,08,14,13.70
2006,09,25,08,15,13.60
2006,09,25,08,16,13.60
2006,09,25,08,17,13.60
2006,09,25,08,18,13.80
2006,09,25,08,19,13.90
2006,09,25,08,20,14.10
2006,09,25,08,21,14.20
2006,09,25,08,22,14.20
2006,09,25,08,23,14.20
2006,09,25,08,24,14.20
2006,09,25,08,25,14.20
2006,09,25,08,26,14.20
2006,09,25,08,27,14.10
2006,09,25,08,28,14.10
2006,09,25,08,29,14.20
2006,09,25,08,30,14.30
2006,09,25,08,31,14.40
2006,09,25,08,32,14.60
2006,09,25,08,33,14.70
2006,09,25,08,34,14.80
2006,09,25,08,35,15.00
2006,09,25,08,36,15.00
2006,09,25,08,37,15.00
2006,09,25,08,38,15.10
2006,09,25,08,39,15.10
2006,09,25,08,40,15.10
2006,09,25,08,41,15.00
2006,09,25,08,42,15.00
2006,09,25,08,43,15.00
2006,09,25,08,44,15.00
2006,09,25,08,45,15.00
2006,09,25,08,46,15.10
2006,09,25,08,47,15.10
2006,09,25,08,48,15.10
2006,09,25,08,49,15.00
2006,09,25,08,50,15.00
2006,09,25,08,51,15.00
2006,09,25,08,52,15.00
2006,09,25,08,53,15.00
2006,09,25,08,54,15.00
2006,09,25,08,55,15.00
2006,09,25,08,56,15.00
2006,09,25,08,57,14.90
2006,09,25,08,58,14.90
2006,09,25,08,59,14.90
2006,09,25,09,00,15.00
2006,09,25,09,01,15.00
2006,09,25,09,02,15.00
2006,09,25,09,03,15.00
2006,09,25,09,04,15.00
2006,09,25,09,05,15.00
2006,09,25,09,06,15.00
2006,09,25,09,07,15.00
2006,09,25,09,08,15.00
2006,09,25,09,09,15.00
2006,09,25,09,10,15.00
2006,09,25,09,11,15.00
2006,09,25,09,12,15.00
2006,09,25,09,13,15.00
2006,09,25,09,14,15.00
2006,09,25,09,15,15.20
2006,09,25,09,16,15.30
2006,09,25,09,17,15.40
2006,09,25,09,18,15.40
2006,09,25,09,19,15.50
2006,09,25,09,20,15.60
2006,09,25,09,21,15.60
2006,09,25,09,22,15.60
2006,09,25,09,23,15.70
2006,09,25,09,24,15.70
2006,09,25,09,25,15.80
2006,09,25,09,26,15.80
2006,09,25,09,27,15.80
2006,09,25,09,28,15.80
2006,09,25,09,29,15.90
2006,09,25,09,30,15.90
2006,09,25,09,31,15.90
2006,09,25,09,32,15.90
2006,09,25,09,33,15.90
2006,09,25,09,34,15.80
2006,09,25,09,35,15.80
2006,09,25,09,36,15.80
2006,09,25,09,37,15.80
2006,09,25,09,38,15.80
2006,09,25,09,39,15.80
2006,09,25,09,40,15.90
2006,09,25,09,41,16.00
2006,09,25,09,42,16.10
2006,09,25,09,43,16.20
2006,09,25,09,44,16.30
2006,09,25,09,45,16.30
2006,09,25,09,46,16.40
2006,09,25,09,47,16.40
2006,09,25,09,48,16.40
2006,09,25,09,49,16.40
2006,09,25,09,50,16.50
2006,09,25,09,51,16.50
2006,09,25,09,52,16.60
2006,09,25,09,53,16.60
2006,09,25,09,54,16.70
2006,09,25,09,55,16.80
2006,09,25,09,56,16.90
2006,09,25,09,57,16.90
2006,09,25,09,58,17.00
2006,09,25,09,59,17.10
2006,09,25,10,00,17.10
2006,09,25,10,01,17.00
2006,09,25,10,02,17.00
2006,09,25,10,03,17.00
2006,09,25,10,04,17.10
2006,09,25,10,05,17.20
2006,09,25,10,06,17.20
2006,09,25,10,07,17.20
2006,09,25,10,08,17.20
2006,09,25,10,09,17.20
2006,09,25,10,10,17.30
2006,09,25,10,11,17.20
2006,09,25,10,12,17.20
2006,09,25,10,13,17.10
2006,09,25,10,14,17.00
2006,09,25,10,15,17.00
2006,09,25,10,16,16.90
2006,09,25,10,17,16.90
2006,09,25,10,18,16.90
2006,09,25,10,19,16.90
2006,09,25,10,20,16.90
2006,09,25,10,21,16.90
2006,09,25,10,22,16.90
2006,09,25,10,23,16.80
2006,09,25,10,24,16.90
2006,09,25,10,25,16.90
2006,09,25,10,26,17.10
2006,09,25,10,27,17.20
2006,09,25,10,28,17.30
2006,09,25,10,29,17.40
2006,09,25,10,30,17.50
2006,09,25,10,31,17.60
2006,09,25,10,32,17.70
2006,09,25,10,33,17.70
2006,09,25,10,34,17.80
2006,09,25,10,35,17.80
2006,09,25,10,36,17.80
2006,09,25,10,37,17.90
2006,09,25,10,38,17.80
2006,09,25,10,39,17.80
2006,09,25,10,40,17.80
2006,09,25,10,41,17.80
2006,09,25,10,42,17.70
2006,09,25,10,43,17.70
2006,09,25,10,44,17.60
2006,09,25,10,45,17.50
2006,09,25,10,46,17.40
2006,09,25,10,47,17.40
2006,09,25,10,48,17.40
2006,09,25,10,49,17.30
2006,09,25,10,50,17.30
2006,09,25,10,51,17.30
2006,09,25,10,52,17.30
2006,09,25,10,53,17.30
2006,09,25,10,54,17.30
2006,09,25,10,55,17.30
2006,09,25,10,56,17.20
2006,09,25,10,57,17.30
2006,09,25,10,58,17.30
2006,09,25,10,59,17.30
2006,09,25,11,00,17.30
2006,09,25,11,01,17.40
2006,09,25,11,02,17.50
2006,09,25,11,03,17.60
2006,09,25,11,04,17.60
2006,09,25,11,05,17.70
2006,09,25,11,06,17.70
2006,09,25,11,07,17.70
2006,09,25,11,08,17.60
2006,09,25,11,09,17.60
2006,09,25,11,10,17.60
2006,09,25,11,11,17.60
2006,09,25,11,12,17.60
2006,09,25,11,13,17.60
2006,09,25,11,14,17.60
2006,09,25,11,15,17.60
2006,09,25,11,16,17.50
2006,09,25,11,17,17.60
2006,09,25,11,18,17.60
2006,09,25,11,19,17.60
2006,09,25,11,20,17.60
2006,09,25,11,21,17.70
2006,09,25,11,22,17.70
2006,09,25,11,23,17.80
2006,09,25,11,24,17.80
2006,09,25,11,25,17.80
2006,09,25,11,26,17.80
2006,09,25,11,27,17.80
2006,09,25,11,28,17.80
2006,09,25,11,29,17.70
2006,09,25,11,30,17.70
2006,09,25,11,31,17.70
2006,09,25,11,32,17.70
2006,09,25,11,33,17.60
2006,09,25,11,34,17.70
2006,09,25,11,35,17.70
2006,09,25,11,36,17.70
2006,09,25,11,37,17.70
2006,09,25,11,38,17.80
2006,09,25,11,39,17.80
2006,09,25,11,40,17.90
2006,09,25,11,41,17.90
2006,09,25,11,42,18.00
2006,09,25,11,43,18.00
2006,09,25,11,44,18.00
2006,09,25,11,45,18.10
2006,09,25,11,46,18.20
2006,09,25,11,47,18.20
2006,09,25,11,48,18.20
2006,09,25,11,49,18.20
2006,09,25,11,50,18.20
2006,09,25,11,51,18.20
2006,09,25,11,52,18.30
2006,09,25,11,53,18.40
2006,09,25,11,54,18.50
2006,09,25,11,55,18.60
2006,09,25,11,56,18.70
2006,09,25,11,57,18.80
2006,09,25,11,58,18.80
2006,09,25,11,59,18.80
2006,09,25,12,00,18.80
2006,09,25,12,01,18.70
2006,09,25,12,02,18.60
2006,09,25,12,03,18.60
2006,09,25,12,04,18.60
2006,09,25,12,05,18.60
2006,09,25,12,06,18.60
2006,09,25,12,07,18.60
2006,09,25,12,08,18.50
2006,09,25,12,09,18.50
2006,09,25,12,10,18.50
2006,09,25,12,11,18.60
2006,09,25,12,12,18.70
2006,09,25,12,13,18.70
2006,09,25,12,14,18.80
2006,09,25,12,15,18.80
2006,09,25,12,16,18.70
2006,09,25,12,17,18.70
2006,09,25,12,18,18.80
2006,09,25,12,19,18.80
2006,09,25,12,20,18.80
2006,09,25,12,21,18.90
2006,09,25,12,22,19.10
2006,09,25,12,23,19.20
2006,09,25,12,24,19.30
2006,09,25,12,25,19.40
2006,09,25,12,26,19.50
2006,09,25,12,27,19.50
2006,09,25,12,28,19.60
2006,09,25,12,29,19.50
2006,09,25,12,30,19.50
2006,09,25,12,31,19.30
2006,09,25,12,32,19.30
2006,09,25,12,33,19.30
2006,09,25,12,34,19.30
2006,09,25,12,35,19.30
2006,09,25,12,36,19.30
2006,09,25,12,37,19.40
2006,09,25,12,38,19.30
2006,09,25,12,39,19.30
2006,09,25,12,40,19.30
2006,09,25,12,41,19.30
2006,09,25,12,42,19.30
2006,09,25,12,43,19.40
2006,09,25,12,44,19.50
2006,09,25,12,45,19.70
2006,09,25,12,46,19.80
2006,09,25,12,47,19.90
2006,09,25,12,48,19.80
2006,09,25,12,49,19.80
2006,09,25,12,50,19.70
2006,09,25,12,51,19.70
2006,09,25,12,52,19.60
2006,09,25,12,53,19.50
2006,09,25,12,54,19.60
2006,09,25,12,55,19.60
2006,09,25,12,56,19.60
2006,09,25,12,57,19.60
2006,09,25,12,58,19.60
2006,09,25,12,59,19.60
2006,09,25,13,00,19.60
2006,09,25,13,01,19.60
2006,09,25,13,02,19.50
2006,09,25,13,03,19.50
2006,09,25,13,04,19.50
2006,09,25,13,05,19.60
2006,09,25,13,06,19.70
2006,09,25,13,07,19.70
2006,09,25,13,08,19.70
2006,09,25,13,09,19.80
2006,09,25,13,10,19.70
2006,09,25,13,11,19.70
2006,09,25,13,12,19.70
2006,09,25,13,13,19.70
2006,09,25,13,14,19.70
2006,09,25,13,15,19.60
2006,09,25,13,16,19.70
2006,09,25,13,17,19.70
2006,09,25,13,18,19.60
2006,09,25,13,19,19.70
2006,09,25,13,20,19.70
2006,09,25,13,21,19.70
2006,09,25,13,22,19.80
2006,09,25,13,23,19.80
2006,09,25,13,24,19.90
2006,09,25,13,25,20.00
2006,09,25,13,26,20.10
2006,09,25,13,27,20.20
2006,09,25,13,28,20.30
2006,09,25,13,29,20.30
2006,09,25,13,30,20.30
2006,09,25,13,31,20.30
2006,09,25,13,32,20.30
2006,09,25,13,33,20.30
2006,09,25,13,34,20.30
2006,09,25,13,35,20.30
2006,09,25,13,36,20.30
2006,09,25,13,37,20.30
2006,09,25,13,38,20.30
2006,09,25,13,39,20.30
2006,09,25,13,40,20.30
2006,09,25,13,41,20.30
2006,09,25,13,42,20.40
2006,09,25,13,43,20.50
2006,09,25,13,44,20.50
2006,09,25,13,45,20.40
2006,09,25,13,46,20.50
2006,09,25,13,47,20.50
2006,09,25,13,48,20.40
2006,09,25,13,49,20.40
2006,09,25,13,50,20.40
2006,09,25,13,51,20.50
2006,09,25,13,52,20.50
2006,09,25,13,53,20.60
2006,09,25,13,54,20.50
2006,09,25,13,55,20.50
2006,09,25,13,56,20.50
2006,09,25,13,57,20.40
2006,09,25,13,58,20.40
2006,09,25,13,59,20.50
2006,09,25,14,00,20.50
2006,09,25,14,01,20.60
2006,09,25,14,02,20.70
2006,09,25,14,03,20.70
2006,09,25,14,04,20.70
2006,09,25,14,05,20.60
2006,09,25,14,06,20.50
2006,09,25,14,07,20.40
2006,09,25,14,08,20.40
2006,09,25,14,09,20.40
2006,09,25,14,10,20.50
2006,09,25,14,11,20.50
2006,09,25,14,12,20.60
2006,09,25,14,13,20.60
2006,09,25,14,14,20.70
2006,09,25,14,15,20.70
2006,09,25,14,16,20.80
2006,09,25,14,17,20.80
2006,09,25,14,18,20.80
2006,09,25,14,19,20.90
2006,09,25,14,20,20.90
2006,09,25,14,21,21.00
2006,09,25,14,22,21.00
2006,09,25,14,23,21.10
2006,09,25,14,24,21.10
2006,09,25,14,25,21.10
2006,09,25,14,26,21.20
2006,09,25,14,27,21.10
2006,09,25,14,28,21.00
2006,09,25,14,29,20.90
2006,09,25,14,30,20.80
2006,09,25,14,31,20.80
2006,09,25,14,32,20.80
2006,09,25,14,33,20.90
2006,09,25,14,34,20.80
2006,09,25,14,35,20.80
2006,09,25,14,36,20.70
2006,09,25,14,37,20.60
2006,09,25,14,38,20.60
2006,09,25,14,39,20.60
2006,09,25,14,40,20.70
2006,09,25,14,41,20.70
2006,09,25,14,42,20.70
2006,09,25,14,43,20.70
2006,09,25,14,44,20.70
2006,09,25,14,45,20.80
2006,09,25,14,46,20.70
2006,09,25,14,47,20.70
2006,09,25,14,48,20.60
2006,09,25,14,49,20.50
2006,09,25,14,50,20.40
2006,09,25,14,51,20.30
2006,09,25,14,52,20.30
2006,09,25,14,53,20.40
2006,09,25,14,54,20.40
2006,09,25,14,55,20.40
2006,09,25,14,56,20.50
2006,09,25,14,57,20.50
2006,09,25,14,58,20.50
2006,09,25,14,59,20.60
2006,09,25,15,00,20.60
2006,09,25,15,01,20.50
2006,09,25,15,02,20.40
2006,09,25,15,03,20.40
2006,09,25,15,04,20.40
2006,09,25,15,05,20.40
2006,09,25,15,06,20.50
2006,09,25,15,07,20.60
2006,09,25,15,08,20.50
2006,09,25,15,09,20.50
2006,09,25,15,10,20.50
2006,09,25,15,11,20.40
2006,09,25,15,12,20.40
2006,09,25,15,13,20.30
2006,09,25,15,14,20.10
2006,09,25,15,15,20.10
2006,09,25,15,16,20.10
2006,09,25,15,17,20.20
2006,09,25,15,18,20.30
2006,09,25,15,19,20.30
2006,09,25,15,20,20.30
2006,09,25,15,21,20.20
2006,09,25,15,22,20.20
2006,09,25,15,23,20.20
2006,09,25,15,24,20.30
2006,09,25,15,25,20.40
2006,09,25,15,26,20.40
2006,09,25,15,27,20.40
2006,09,25,15,28,20.40
2006,09,25,15,29,20.40
2006,09,25,15,30,20.40
2006,09,25,15,31,20.40
2006,09,25,15,32,20.40
2006,09,25,15,33,20.50
2006,09,25,15,34,20.60
2006,09,25,15,35,20.60
2006,09,25,15,36,20.70
2006,09,25,15,37,20.70
2006,09,25,15,38,20.60
2006,09,25,15,39,20.60
2006,09,25,15,40,20.50
2006,09,25,15,41,20.50
2006,09,25,15,42,20.50
2006,09,25,15,43,20.60
2006,09,25,15,44,20.60
2006,09,25,15,45,20.60
2006,09,25,15,46,20.70
2006,09,25,15,47,20.70
2006,09,25,15,48,20.70
2006,09,25,15,49,20.80
2006,09,25,15,50,20.90
2006,09,25,15,51,21.00
2006,09,25,15,52,21.00
2006,09,25,15,53,21.00
2006,09,25,15,54,20.90
2006,09,25,15,55,20.90
2006,09,25,15,56,20.90
2006,09,25,15,57,20.90
2006,09,25,15,58,20.90
2006,09,25,15,59,21.00
2006,09,25,16,00,21.00
2006,09,25,16,01,21.10
2006,09,25,16,02,21.10
2006,09,25,16,03,21.20
2006,09,25,16,04,21.30
2006,09,25,16,05,21.30
2006,09,25,16,06,21.40
2006,09,25,16,07,21.40
2006,09,25,16,08,21.50
2006,09,25,16,09,21.50
2006,09,25,16,10,21.60
2006,09,25,16,11,21.60
2006,09,25,16,12,21.60
2006,09,25,16,13,21.70
2006,09,25,16,14,21.70
2006,09,25,16,15,21.70
2006,09,25,16,16,21.70
2006,09,25,16,17,21.70
2006,09,25,16,18,21.60
2006,09,25,16,19,21.60
2006,09,25,16,20,21.60
2006,09,25,16,21,21.60
2006,09,25,16,22,21.70
2006,09,25,16,23,21.70
2006,09,25,16,24,21.70
2006,09,25,16,25,21.70
2006,09,25,16,26,21.70
2006,09,25,16,27,21.70
2006,09,25,16,28,21.70
2006,09,25,16,29,21.80
2006,09,25,16,30,21.80
2006,09,25,16,31,21.80
2006,09,25,16,32,21.80
2006,09,25,16,33,21.90
2006,09,25,16,34,21.90
2006,09,25,16,35,22.00
2006,09,25,16,36,22.00
2006,09,25,16,37,22.00
2006,09,25,16,38,22.00
2006,09,25,16,39,22.10
2006,09,25,16,40,22.10
2006,09,25,16,41,22.10
2006,09,25,16,42,22.10
2006,09,25,16,43,22.10
2006,09,25,16,44,22.10
2006,09,25,16,45,22.10
2006,09,25,16,46,22.10
2006,09,25,16,47,22.10
2006,09,25,16,48,22.00
2006,09,25,16,49,22.10
2006,09,25,16,50,22.10
2006,09,25,16,51,22.10
2006,09,25,16,52,22.10
2006,09,25,16,53,22.00
2006,09,25,16,54,22.00
2006,09,25,16,55,22.00
2006,09,25,16,56,22.00
2006,09,25,16,57,22.10
2006,09,25,16,58,22.10
2006,09,25,16,59,22.00
2006,09,25,17,00,22.00
2006,09,25,17,01,21.90
2006,09,25,17,02,21.90
2006,09,25,17,03,21.90
2006,09,25,17,04,21.90
2006,09,25,17,05,21.90
2006,09,25,17,06,21.90
2006,09,25,17,07,21.90
2006,09,25,17,08,21.90
2006,09,25,17,09,21.90
2006,09,25,17,10,21.90
2006,09,25,17,11,21.90
2006,09,25,17,12,21.90
2006,09,25,17,13,22.00
2006,09,25,17,14,22.00
2006,09,25,17,15,22.00
2006,09,25,17,16,22.00
2006,09,25,17,17,22.00
2006,09,25,17,18,22.10
2006,09,25,17,19,22.10
2006,09,25,17,20,22.10
2006,09,25,17,21,22.20